User: anonymous   Login
Location: Twentynine Palms Airport
(34.1316°N, 115.9458°W)
Time: 01:53:12
(UTC-07:00)
Language:

Oscar 19 - Orbit

View from above orbital plane
View from above orbital plane
View from above satellite
View from above satellite

Ground track
Ground track

The orbit data is extracted from the following two-line orbital elements,

1 20442U 90005G   18111.86076582 +.00000024 +00000-0 +24961-4 0  9992
2 20442 098.6063 050.7110 0011051 321.4251 038.6142 14.32892849475769
Epoch (UTC): 21 April 2018 20:39:30
Eccentricity: 0.0011051
inclination: 98.6063°
perigee height: 774 km
apogee height: 790 km
right ascension of ascending node: 50.7110°
argument of perigee: 321.4251°
revolutions per day: 14.32892849
mean anomaly at epoch: 38.6142°
orbit number at epoch: 47576

The dashed part of the orbit path shows where the satellite is in the earth's shadow,  

DLR